Wind_Speed
39 41 44 47 49 52 55 57 58 60 60 59 60 61 62 65 62 65 65 65 65 66 63 60 59 53 54 55 58 55 54 58 70 73 69 62 70 68 64 65 73 73 73
41 43 45 47 49 51 54 56 59 62 65 66 66 67 67 68 70 68 67 68 69 68 67 60 64 66 63 61 54 55 51 54 57 62 68 71 76 75 72 76 78 73 69
42 44 46 48 49 52 56 59 62 66 68 70 72 71 72 73 75 74 72 72 70 72 68 65 66 65 66 62 62 53 54 47 48 54 62 66 67 73 81 76 78 75 78
43 44 47 48 48 50 55 60 62 66 71 75 76 75 69 66 68 73 73 71 73 69 68 66 66 65 66 66 64 57 54 55 55 55 55 61 67 68 73 78 80 72 73
41 43 44 45 47 53 57 59 62 69 74 73 71 67 63 55 52 48 51 60 66 67 62 61 63 64 65 64 64 61 55 55 53 50 49 55 62 69 67 60 69 71 75
41 41 40 42 49 54 54 62 70 70 65 62 56 54 50 50 44 40 43 46 52 57 59 59 61 60 61 58 56 55 53 54 59 58 62 63 62 54 54 64 67 68 74
36 36 39 45 49 52 60 65 57 48 46 45 43 44 43 46 42 41 39 40 43 43 45 50 56 54 59 55 52 52 53 55 54 57 61 66 61 59 64 65 65 63 64
31 35 40 44 49 54 57 46 42 41 39 36 37 37 33 35 42 28 36 35 35 40 40 48 48 52 53 53 50 51 50 44 50 54 55 57 56 55 52 57 59 62 60
28 34 37 40 48 51 45 38 34 31 29 28 29 27 24 22 29 33 31 30 30 33 44 38 46 48 51 53 51 51 48 44 46 46 43 45 46 45 46 48 48 44 33
26 32 34 41 45 44 34 27 36 28 24 25 26 25 24 21 25 25 25 24 28 30 34 39 47 40 49 48 46 46 43 44 39 40 40 39 39 41 41 35 23 12 3
25 29 32 39 40 39 33 29 26 23 23 26 24 23 21 22 19 23 27 26 28 28 28 29 27 39 35 39 41 40 42 37 31 29 32 35 33 22 12 6 5 3 6
21 28 31 34 34 37 28 28 24 21 21 22 21 15 18 17 19 14 18 21 18 16 18 20 21 23 23 19 24 26 26 27 29 32 25 12 5 4 4 5 6 10 14
17 26 29 32 30 32 28 23 23 15 12 12 9 11 14 18 13 7 7 3 12 12 15 18 20 19 19 25 29 29 27 23 15 9 6 4 3 6 11 14 15 19 22
15 21 26 31 28 27 26 24 21 20 12 10 9 11 15 17 18 15 10 9 10 14 14 17 22 24 28 23 20 18 15 9 6 5 4 7 8 10 15 19 21 25 26
15 17 21 27 27 25 23 23 20 17 15 10 9 9 12 13 12 14 9 8 11 14 15 17 16 14 16 15 13 9 8 8 7 6 6 9 13 17 20 23 25 28 32
16 14 17 22 26 25 23 19 19 15 13 12 9 8 6 2 0 5 2 9 13 14 13 12 12 11 9 5 3 3 6 6 6 9 13 15 18 19 23 28 31 35 38
19 17 17 19 22 22 22 20 19 16 11 10 12 11 6 8 9 3 5 9 8 8 9 10 10 10 7 3 2 5 8 9 12 15 18 22 27 30 32 33 36 37 40
21 20 19 18 20 22 18 17 16 16 12 7 6 9 9 12 14 10 7 8 10 11 11 10 7 1 3 5 7 8 11 14 19 24 26 26 26 29 32 34 35 39 42
24 24 23 21 18 18 20 17 15 14 14 11 6 6 8 7 7 9 11 11 11 11 10 10 10 10 11 13 14 15 16 18 20 22 24 27 27 29 30 36 41 44 48
27 27 26 25 24 19 17 19 14 14 14 14 11 11 9 7 8 10 10 11 14 16 16 17 17 18 20 21 21 22 21 21 23 24 24 26 29 33 38 42 46 50 54
25 26 27 29 27 24 21 19 18 18 18 16 18 18 15 12 12 12 14 15 17 19 20 21 20 22 24 21 21 24 25 27 28 29 30 31 35 39 44 48 50 53 61
28 29 31 31 34 26 23 30 18 20 22 20 18 23 24 21 17 16 18 21 22 22 24 26 25 26 26 25 27 28 30 31 33 34 35 37 41 45 46 49 54 60 65
29 24 27 35 37 30 26 24 25 29 26 26 24 23 27 29 26 24 21 23 26 28 28 29 30 29 27 28 34 31 29 28 31 35 38 42 45 47 51 55 57 62 64
39 29 35 33 38 42 44 34 31 31 30 34 32 31 29 31 29 28 27 30 31 30 29 27 30 31 32 29 32 36 34 37 37 40 41 44 47 50 58 52 57 61 65
34 38 43 44 43 43 43 40 38 34 40 42 42 43 38 39 41 34 30 28 30 27 31 31 32 34 36 35 38 42 41 37 42 45 44 47 53 56 55 56 58 63 63
41 41 42 42 44 47 50 52 51 50 53 55 53 56 42 43 45 45 38 29 29 30 35 33 36 32 29 36 34 35 37 36 37 40 43 52 54 54 56 57 60 60 49
Wind_Direction
269 269 271 273 275 276 278 279 280 281 282 281 280 280 278 277 276 273 271 269 269 267 267 269 265 268 266 270 266 269 270 270 265 263 262 268 267 267 266 269 272 272 272
270 276 281 281 279 280 281 282 283 284 284 284 283 281 278 276 276 273 270 269 266 253 263 254 255 264 263 266 265 266 273 266 258 262 263 262 266 267 269 270 270 271 266
274 279 283 285 283 282 282 283 284 285 286 288 287 285 281 278 275 274 271 268 266 265 263 259 256 257 260 262 261 266 265 263 273 266 265 264 264 261 269 271 268 268 274
277 283 286 286 287 288 289 290 291 290 289 287 285 284 282 280 278 274 269 267 265 262 262 260 256 256 257 257 260 263 263 264 265 272 272 266 264 262 265 269 270 275 275
280 283 287 289 290 293 293 292 292 293 292 288 284 283 281 280 280 272 266 258 255 256 254 252 251 252 256 258 257 259 261 258 254 258 265 268 266 261 260 270 271 267 267
287 290 290 294 294 293 297 300 299 296 290 285 279 279 279 285 278 271 259 253 247 245 247 246 244 245 249 254 256 257 256 255 255 254 260 262 267 267 263 264 265 265 261
291 290 297 300 300 304 303 306 300 293 287 284 279 278 278 274 285 275 266 257 249 245 245 245 247 244 250 248 250 253 253 256 255 255 259 261 260 254 256 255 257 263 266
292 303 304 307 309 312 311 305 300 294 288 284 280 278 278 283 286 271 265 267 258 240 240 240 235 242 242 242 242 250 252 254 256 253 250 250 249 253 256 258 258 261 262
307 310 315 315 316 320 315 310 311 298 291 285 280 275 275 275 277 276 274 262 259 253 237 241 235 240 238 242 242 246 247 254 251 248 252 255 256 256 257 260 254 240 230
311 317 320 320 322 327 326 319 315 307 297 295 285 279 275 271 268 274 281 265 259 252 239 240 243 241 242 243 241 239 239 245 249 253 256 257 254 248 239 226 216 220 234
315 326 324 323 328 329 330 333 329 319 302 298 293 285 288 291 291 280 270 268 266 251 255 232 240 247 254 242 239 247 253 250 257 258 241 222 214 207 197 164 147 190 259
320 330 325 325 332 332 330 341 338 321 312 306 309 308 304 293 284 292 290 260 247 233 246 222 226 229 226 236 236 230 223 224 221 214 204 182 146 84 142 187 232 254 265
315 325 328 324 330 334 336 334 346 338 358 10 15 59 58 48 48 48 47 316 237 205 186 189 191 202 204 207 199 191 179 171 146 115 93 99 198 226 226 234 251 273 283
309 324 328 323 330 330 336 343 340 355 358 350 9 28 30 27 36 49 77 103 144 167 175 199 202 188 171 139 119 114 107 109 134 162 205 225 235 250 254 258 268 273 270
296 320 329 325 328 324 333 342 346 345 345 334 341 3 21 10 21 62 72 119 153 149 133 122 121 118 107 103 110 133 157 172 191 202 240 263 266 267 270 276 277 276 283
282 296 309 319 329 324 322 334 340 346 339 332 332 311 339 352 228 338 51 113 97 95 99 105 112 115 124 139 200 224 222 226 241 249 262 272 278 284 286 285 284 290 290
274 277 296 310 324 323 320 323 329 340 336 333 318 297 276 281 275 292 145 144 139 130 129 126 127 123 109 116 206 245 253 262 271 278 281 278 279 279 281 282 282 287 288
269 265 275 292 309 309 308 316 313 323 330 316 310 296 288 271 268 269 235 180 165 155 152 154 154 204 295 289 284 269 260 264 262 264 271 278 281 286 289 293 296 295 296
263 259 266 276 288 302 307 299 306 301 306 305 298 282 291 271 247 245 241 234 210 206 216 221 238 273 285 290 284 285 295 288 276 278 291 296 292 289 297 303 302 300 301
265 266 266 272 281 286 291 297 291 299 292 290 288 278 275 282 267 248 245 245 242 241 247 255 266 282 288 290 296 302 298 299 296 302 293 289 299 301 301 302 301 302 304
265 267 271 271 275 281 278 285 291 284 294 292 284 278 270 260 268 268 261 262 262 262 268 271 272 276 286 299 305 298 298 302 301 300 304 304 297 296 300 302 302 304 304
260 259 261 266 260 270 283 277 292 315 302 280 278 276 271 266 255 250 259 262 265 269 271 272 275 276 278 283 287 283 287 289 290 291 293 294 298 305 305 305 305 305 305
269 278 268 276 261 251 272 295 282 291 297 291 287 265 267 267 259 258 252 257 262 263 266 271 274 275 279 282 276 280 283 289 295 299 298 298 301 306 304 306 305 305 307
270 261 274 270 259 255 273 260 276 285 289 287 290 282 253 263 260 259 253 254 254 260 265 270 273 274 280 276 280 285 286 288 297 301 301 302 302 304 309 307 305 306 307
260 261 266 264 262 260 252 261 271 274 268 277 269 281 263 282 260 263 263 260 264 266 270 273 276 279 283 285 285 283 292 292 291 294 299 308 304 302 305 307 307 308 311
267 265 264 265 264 262 262 267 270 272 274 275 266 272 275 272 266 262 260 259 270 272 276 278 279 277 270 274 284 299 294 294 298 298 295 305 306 303 304 305 307 311 313
Height
5769 5767 5766 5765 5762 5760 5757 5754 5751 5749 5748 5747 5747 5746 5746 5746 5746 5748 5750 5752 5755 5758 5761 5765 5768 5769 5771 5772 5772 5773 5774 5774 5776 5776 5778 5781 5782 5786 5789 5789 5788 5788 5789
5759 5757 5755 5753 5750 5748 5745 5741 5737 5732 5729 5727 5726 5726 5728 5727 5726 5728 5730 5731 5735 5739 5742 5746 5749 5752 5754 5757 5756 5757 5757 5756 5759 5761 5763 5766 5766 5766 5769 5771 5772 5772 5772
5749 5747 5745 5741 5738 5734 5731 5728 5723 5718 5713 5706 5702 5701 5702 5702 5704 5703 5705 5710 5713 5717 5722 5726 5730 5732 5734 5737 5741 5741 5742 5744 5745 5746 5745 5747 5749 5750 5753 5751 5752 5756 5755
5740 5737 5733 5730 5726 5722 5717 5712 5706 5700 5693 5688 5684 5680 5677 5676 5676 5679 5682 5683 5687 5693 5699 5704 5708 5712 5715 5718 5722 5726 5727 5728 5729 5730 5731 5732 5733 5734 5736 5737 5738 5737 5740
5730 5728 5724 5719 5714 5709 5703 5695 5688 5681 5674 5667 5661 5658 5656 5656 5656 5654 5656 5661 5664 5668 5674 5681 5687 5692 5696 5699 5704 5707 5710 5712 5713 5715 5718 5718 5719 5719 5721 5722 5724 5724 5724
5719 5716 5713 5709 5703 5697 5688 5678 5669 5660 5652 5647 5643 5641 5640 5640 5640 5640 5640 5641 5644 5649 5654 5660 5667 5672 5678 5682 5686 5689 5693 5696 5700 5700 5700 5701 5701 5702 5706 5707 5708 5709 5709
5710 5706 5703 5698 5691 5683 5674 5663 5652 5643 5637 5633 5630 5628 5628 5628 5627 5627 5627 5628 5630 5633 5638 5643 5649 5656 5661 5667 5670 5674 5678 5679 5681 5683 5683 5684 5685 5686 5688 5689 5690 5691 5691
5701 5698 5693 5686 5678 5669 5658 5647 5639 5631 5626 5622 5620 5619 5618 5618 5617 5614 5615 5616 5618 5620 5626 5629 5636 5641 5646 5652 5657 5660 5664 5665 5664 5665 5666 5668 5670 5671 5674 5675 5676 5677 5678
5692 5689 5684 5676 5667 5657 5645 5636 5629 5622 5617 5614 5612 5610 5610 5610 5609 5608 5606 5606 5608 5610 5613 5617 5623 5627 5631 5637 5642 5647 5650 5651 5650 5651 5653 5655 5657 5658 5661 5663 5664 5665 5665
5685 5681 5674 5667 5658 5648 5638 5628 5621 5616 5612 5608 5606 5603 5602 5602 5601 5600 5598 5598 5599 5600 5601 5605 5609 5616 5620 5624 5628 5633 5637 5639 5640 5640 5642 5642 5645 5648 5651 5653 5654 5655 5657
5676 5671 5665 5660 5652 5643 5634 5625 5617 5612 5608 5604 5601 5598 5597 5595 5594 5593 5593 5593 5592 5593 5594 5597 5602 5607 5608 5614 5615 5620 5624 5627 5628 5632 5634 5636 5640 5643 5644 5646 5649 5652 5655
5668 5665 5659 5653 5647 5639 5632 5624 5617 5609 5605 5601 5597 5595 5592 5591 5590 5588 5586 5585 5587 5588 5591 5590 5595 5598 5602 5603 5609 5613 5616 5620 5624 5629 5630 5632 5634 5637 5640 5644 5648 5650 5652
5660 5658 5653 5649 5643 5636 5629 5623 5617 5610 5605 5601 5598 5596 5594 5591 5588 5586 5585 5584 5585 5586 5590 5593 5593 5597 5600 5604 5607 5611 5614 5618 5620 5623 5629 5633 5636 5639 5641 5642 5644 5644 5644
5653 5651 5647 5644 5639 5633 5627 5622 5616 5612 5606 5603 5600 5598 5594 5593 5591 5588 5587 5587 5591 5594 5594 5596 5599 5600 5603 5605 5607 5612 5615 5619 5623 5627 5630 5633 5635 5636 5637 5639 5640 5640 5639
5646 5645 5642 5640 5635 5629 5625 5620 5615 5611 5609 5606 5603 5600 5598 5597 5595 5595 5595 5596 5596 5597 5598 5600 5602 5604 5605 5608 5612 5615 5618 5622 5625 5626 5628 5630 5631 5632 5633 5633 5632 5632 5630
5640 5638 5637 5634 5630 5627 5622 5618 5614 5610 5607 5605 5604 5603 5602 5600 5600 5600 5599 5598 5597 5598 5600 5602 5604 5605 5608 5612 5614 5617 5619 5621 5622 5624 5625 5626 5626 5625 5625 5624 5623 5621 5618
5633 5632 5631 5629 5626 5623 5619 5616 5613 5609 5606 5605 5603 5602 5602 5602 5600 5599 5599 5599 5599 5601 5602 5604 5606 5608 5611 5612 5614 5616 5616 5617 5618 5619 5619 5619 5619 5619 5618 5616 5614 5610 5606
5625 5624 5623 5621 5619 5618 5615 5612 5611 5608 5606 5604 5603 5601 5599 5599 5600 5600 5600 5600 5601 5602 5603 5605 5607 5608 5610 5612 5613 5613 5614 5615 5614 5614 5613 5612 5611 5610 5608 5605 5602 5598 5594
5616 5615 5615 5614 5613 5612 5611 5608 5606 5605 5604 5603 5601 5599 5599 5598 5598 5599 5600 5601 5601 5601 5603 5604 5605 5606 5608 5609 5608 5608 5609 5609 5607 5606 5605 5604 5602 5600 5597 5593 5589 5584 5579
5606 5608 5607 5607 5605 5606 5605 5603 5600 5600 5600 5599 5599 5597 5597 5597 5597 5597 5598 5598 5599 5600 5601 5602 5602 5604 5603 5602 5603 5602 5601 5600 5599 5598 5596 5595 5592 5589 5585 5582 5577 5571 5565
5598 5597 5598 5599 5598 5598 5598 5596 5595 5593 5593 5591 5593 5594 5593 5593 5593 5593 5594 5594 5594 5595 5596 5597 5598 5597 5595 5596 5596 5595 5594 5593 5592 5589 5586 5585 5582 5579 5575 5569 5564 5558 5550
5588 5588 5588 5588 5589 5590 5590 5589 5586 5586 5586 5587 5585 5586 5588 5586 5585 5585 5586 5587 5586 5587 5587 5587 5588 5587 5587 5588 5587 5585 5586 5585 5583 5580 5578 5575 5572 5568 5563 5557 5551 5542 5532
5577 5575 5577 5575 5575 5577 5577 5576 5577 5577 5577 5578 5578 5576 5577 5578 5578 5578 5578 5578 5577 5577 5578 5578 5577 5577 5579 5577 5575 5576 5576 5574 5572 5571 5569 5565 5561 5556 5551 5544 5537 5528 5518
5566 5566 5566 5565 5565 5565 5566 5564 5565 5566 5566 5568 5568 5567 5567 5569 5568 5569 5570 5570 5569 5570 5571 5571 5572 5571 5571 5571 5569 5566 5564 5564 5563 5561 5558 5554 5550 5544 5538 5530 5522 5512 5503
5555 5555 5554 5554 5554 5554 5553 5553 5553 5554 5556 5555 5555 5556 5555 5556 5558 5556 5557 5558 5559 5560 5562 5562 5563 5562 5561 5560 5558 5557 5555 5553 5552 5550 5547 5544 5538 5532 5525 5518 5509 5499 5490
5543 5541 5540 5540 5538 5538 5538 5538 5538 5539 5539 5540 5538 5541 5543 5543 5546 5547 5546 5547 5548 5548 5550 5551 5552 5552 5552 5550 5550 5548 5546 5544 5542 5539 5536 5531 5526 5520 5514 5506 5497 5488 5481